Time,TemperatureF,DewpointF,PressureIn,WindDirection,WindDirectionDegrees,WindSpeedMPH,WindSpeedGustMPH,Humidity,HourlyPrecipIn,Conditions,Clouds,dailyrainin,SoftwareType,DateUTC
2013-10-30 00:01:00,50.0,49.0,30.30,West,270,1.4,3.0,97,0.00,,,0.00,Rainwise IP-100,2013-10-30 07:01:00,
2013-10-30 00:06:00,50.0,49.0,30.30,WSW,247,2.1,3.0,97,0.00,,,0.00,Rainwise IP-100,2013-10-30 07:06:00,
2013-10-30 00:11:00,50.0,49.0,30.30,West,270,2.8,4.0,97,0.00,,,0.00,Rainwise IP-100,2013-10-30 07:11:00,
2013-10-30 00:16:00,50.0,49.0,30.30,West,270,0.0,3.0,97,0.00,,,0.00,Rainwise IP-100,2013-10-30 07:16:00,
2013-10-30 00:21:00,50.0,49.0,30.29,WNW,292,0.0,3.0,97,0.00,,,0.00,Rainwise IP-100,2013-10-30 07:21:00,
2013-10-30 00:26:00,50.0,49.0,30.30,West,270,0.0,3.0,97,0.00,,,0.00,Rainwise IP-100,2013-10-30 07:26:00,
2013-10-30 00:31:00,49.9,49.0,30.29,WNW,292,0.0,2.0,97,0.00,,,0.00,Rainwise IP-100,2013-10-30 07:31:00,
2013-10-30 00:36:00,49.9,49.0,30.30,West,270,1.6,2.0,97,0.00,,,0.00,Rainwise IP-100,2013-10-30 07:36:00,
2013-10-30 00:41:00,49.9,49.0,30.30,West,270,1.4,4.0,97,0.00,,,0.00,Rainwise IP-100,2013-10-30 07:41:00,
2013-10-30 00:46:00,50.0,49.0,30.29,WNW,292,1.4,4.0,97,0.00,,,0.00,Rainwise IP-100,2013-10-30 07:46:00,
2013-10-30 00:51:00,50.0,49.0,30.30,WNW,292,1.2,5.0,97,0.00,,,0.00,Rainwise IP-100,2013-10-30 07:51:00,
2013-10-30 00:56:00,50.0,49.0,30.30,West,270,1.9,3.0,97,0.00,,,0.00,Rainwise IP-100,2013-10-30 07:56:00,
2013-10-30 01:01:00,50.0,49.0,30.29,West,270,2.6,3.0,97,0.00,,,0.00,Rainwise IP-100,2013-10-30 08:01:00,
2013-10-30 01:06:00,49.9,49.0,30.30,WNW,292,3.0,3.0,97,0.00,,,0.00,Rainwise IP-100,2013-10-30 08:06:00,
2013-10-30 01:11:00,49.9,49.0,30.30,WNW,292,2.6,4.0,97,0.00,,,0.00,Rainwise IP-100,2013-10-30 08:11:00,
2013-10-30 01:16:00,49.9,49.0,30.29,West,270,3.3,3.3,97,0.00,,,0.00,Rainwise IP-100,2013-10-30 08:16:00,
2013-10-30 01:21:00,49.9,49.0,30.30,WNW,292,3.0,4.0,97,0.00,,,0.00,Rainwise IP-100,2013-10-30 08:21:00,
2013-10-30 01:26:00,50.0,49.0,30.30,WNW,292,2.8,3.0,97,0.00,,,0.00,Rainwise IP-100,2013-10-30 08:26:00,
2013-10-30 01:31:00,50.0,49.0,30.30,WNW,292,3.3,3.3,97,0.00,,,0.00,Rainwise IP-100,2013-10-30 08:31:00,
2013-10-30 01:36:00,49.9,49.0,30.29,WNW,292,0.0,3.0,97,0.00,,,0.00,Rainwise IP-100,2013-10-30 08:36:00,
2013-10-30 01:41:00,49.9,49.0,30.30,WNW,292,0.0,2.0,97,0.00,,,0.00,Rainwise IP-100,2013-10-30 08:41:00,
2013-10-30 01:46:00,49.7,49.0,30.30,WNW,292,0.0,1.0,97,0.00,,,0.00,Rainwise IP-100,2013-10-30 08:46:00,
2013-10-30 01:47:00,49.6,49.0,30.30,WNW,292,0.0,1.0,97,0.00,,,0.00,Rainwise IP-100,2013-10-30 08:47:00,
2013-10-30 01:52:00,49.2,48.0,30.30,WNW,292,0.0,0.0,97,0.00,,,0.00,Rainwise IP-100,2013-10-30 08:52:00,
2013-10-30 01:53:00,49.1,48.0,30.30,WNW,292,0.0,0.0,97,0.00,,,0.00,Rainwise IP-100,2013-10-30 08:53:00,
2013-10-30 01:58:00,48.8,48.0,30.29,WNW,292,0.0,1.0,97,0.00,,,0.00,Rainwise IP-100,2013-10-30 08:58:00,
2013-10-30 02:03:00,48.6,48.0,30.29,WNW,292,0.0,0.0,97,0.00,,,0.00,Rainwise IP-100,2013-10-30 09:03:00,
2013-10-30 02:08:00,48.4,47.0,30.30,WNW,292,0.0,1.0,98,0.00,,,0.00,Rainwise IP-100,2013-10-30 09:08:00,
2013-10-30 02:13:00,48.5,48.0,30.30,WNW,292,0.0,0.0,98,0.00,,,0.00,Rainwise IP-100,2013-10-30 09:13:00,
2013-10-30 02:18:00,48.5,48.0,30.30,WNW,292,1.2,0.0,98,0.00,,,0.00,Rainwise IP-100,2013-10-30 09:18:00,
2013-10-30 02:23:00,48.5,48.0,30.29,WNW,292,0.0,1.0,98,0.00,,,0.00,Rainwise IP-100,2013-10-30 09:23:00,
2013-10-30 02:28:00,48.7,49.0,30.29,NNE,22,1.9,3.0,99,0.00,,,0.00,Rainwise IP-100,2013-10-30 09:28:00,
2013-10-30 02:33:00,48.7,49.0,30.30,NNE,22,1.4,2.0,99,0.00,,,0.00,Rainwise IP-100,2013-10-30 09:33:00,
2013-10-30 02:38:00,48.7,49.0,30.29,NNE,22,1.6,2.0,99,0.00,,,0.00,Rainwise IP-100,2013-10-30 09:38:00,
2013-10-30 02:39:00,48.7,49.0,30.30,NNE,22,2.3,2.3,99,0.00,,,0.00,Rainwise IP-100,2013-10-30 09:39:00,
2013-10-30 02:45:00,48.7,49.0,30.29,NNE,22,0.0,2.0,99,0.00,,,0.00,Rainwise IP-100,2013-10-30 09:45:00,
2013-10-30 02:50:00,48.6,49.0,30.30,NNE,22,1.2,2.0,99,0.00,,,0.00,Rainwise IP-100,2013-10-30 09:50:00,
2013-10-30 02:55:00,48.6,49.0,30.30,NNE,22,1.2,2.0,99,0.00,,,0.00,Rainwise IP-100,2013-10-30 09:55:00,
2013-10-30 03:00:00,48.7,49.0,30.29,NNE,22,0.0,2.0,99,0.00,,,0.00,Rainwise IP-100,2013-10-30 10:00:00,
2013-10-30 03:05:00,48.8,48.0,30.30,NNE,22,2.1,2.1,98,0.00,,,0.00,Rainwise IP-100,2013-10-30 10:05:00,
2013-10-30 03:10:00,49.0,48.0,30.30,NE,45,1.2,3.0,98,0.00,,,0.00,Rainwise IP-100,2013-10-30 10:10:00,
2013-10-30 03:15:00,48.9,48.0,30.30,NE,45,1.2,2.0,97,0.00,,,0.00,Rainwise IP-100,2013-10-30 10:15:00,
2013-10-30 03:20:00,48.8,48.0,30.30,NE,45,0.0,2.0,97,0.00,,,0.00,Rainwise IP-100,2013-10-30 10:20:00,
2013-10-30 03:25:00,48.9,48.0,30.30,NE,45,1.9,1.9,97,0.00,,,0.00,Rainwise IP-100,2013-10-30 10:25:00,
2013-10-30 03:30:00,48.9,48.0,30.30,NE,45,1.2,2.0,97,0.00,,,0.00,Rainwise IP-100,2013-10-30 10:30:00,
2013-10-30 03:35:00,48.9,48.0,30.29,NE,45,0.0,1.0,97,0.00,,,0.00,Rainwise IP-100,2013-10-30 10:35:00,
2013-10-30 03:40:00,48.9,48.0,30.30,NE,45,0.0,1.0,97,0.00,,,0.00,Rainwise IP-100,2013-10-30 10:40:00,
2013-10-30 03:45:00,49.0,48.0,30.30,NE,45,0.0,1.0,97,0.00,,,0.00,Rainwise IP-100,2013-10-30 10:45:00,
2013-10-30 03:50:00,49.0,48.0,30.30,NE,45,0.0,1.0,97,0.00,,,0.00,Rainwise IP-100,2013-10-30 10:50:00,
2013-10-30 03:55:00,49.1,48.0,30.29,NE,45,0.0,0.0,97,0.00,,,0.00,Rainwise IP-100,2013-10-30 10:55:00,
2013-10-30 04:00:00,49.1,48.0,30.30,NE,45,0.0,0.0,97,0.00,,,0.00,Rainwise IP-100,2013-10-30 11:00:00,
2013-10-30 04:05:00,49.2,48.0,30.30,NE,45,0.0,0.0,98,0.00,,,0.00,Rainwise IP-100,2013-10-30 11:05:00,
2013-10-30 04:10:00,49.5,49.0,30.30,WNW,292,2.6,2.6,97,0.00,,,0.00,Rainwise IP-100,2013-10-30 11:10:00,
2013-10-30 04:15:00,49.6,49.0,30.30,NW,315,1.9,3.0,97,0.00,,,0.00,Rainwise IP-100,2013-10-30 11:15:00,
2013-10-30 04:20:00,49.4,48.0,30.30,NW,315,0.0,2.0,97,0.00,,,0.00,Rainwise IP-100,2013-10-30 11:20:00,
2013-10-30 04:25:00,49.2,48.0,30.30,NW,315,0.0,1.0,97,0.00,,,0.00,Rainwise IP-100,2013-10-30 11:25:00,
2013-10-30 04:30:00,49.2,48.0,30.30,NW,315,0.0,1.0,97,0.00,,,0.00,Rainwise IP-100,2013-10-30 11:30:00,
2013-10-30 04:35:00,49.1,48.0,30.30,SE,135,0.0,1.0,97,0.00,,,0.00,Rainwise IP-100,2013-10-30 11:35:00,
2013-10-30 04:40:00,48.5,48.0,30.30,SE,135,0.0,1.0,96,0.00,,,0.00,Rainwise IP-100,2013-10-30 11:40:00,
2013-10-30 04:45:00,47.8,47.0,30.30,SE,135,0.0,0.0,96,0.00,,,0.00,Rainwise IP-100,2013-10-30 11:45:00,
2013-10-30 04:50:00,47.7,47.0,30.30,SE,135,0.0,0.0,96,0.00,,,0.00,Rainwise IP-100,2013-10-30 11:50:00,
2013-10-30 04:55:00,48.0,47.0,30.30,SE,135,0.0,0.0,97,0.00,,,0.00,Rainwise IP-100,2013-10-30 11:55:00,
2013-10-30 05:00:00,48.2,47.0,30.31,SE,135,0.0,0.0,97,0.00,,,0.00,Rainwise IP-100,2013-10-30 12:00:00,
2013-10-30 05:05:00,48.1,47.0,30.31,SE,135,0.0,0.0,98,0.00,,,0.00,Rainwise IP-100,2013-10-30 12:05:00,
2013-10-30 05:10:00,48.1,47.0,30.31,NNE,22,0.0,1.0,98,0.00,,,0.00,Rainwise IP-100,2013-10-30 12:10:00,
2013-10-30 05:15:00,48.3,47.0,30.31,NNE,22,0.0,1.0,98,0.00,,,0.00,Rainwise IP-100,2013-10-30 12:15:00,
2013-10-30 05:20:00,48.3,47.0,30.31,NNE,22,0.0,0.0,98,0.00,,,0.00,Rainwise IP-100,2013-10-30 12:20:00,
2013-10-30 05:25:00,48.2,48.0,30.31,NNE,22,0.0,0.0,99,0.00,,,0.00,Rainwise IP-100,2013-10-30 12:25:00,
2013-10-30 05:30:00,48.1,48.0,30.32,NNE,22,0.0,0.0,99,0.00,,,0.00,Rainwise IP-100,2013-10-30 12:30:00,
2013-10-30 05:35:00,48.0,48.0,30.32,NNE,22,0.0,0.0,99,0.00,,,0.00,Rainwise IP-100,2013-10-30 12:35:00,
2013-10-30 05:40:00,48.0,48.0,30.32,NNE,22,0.0,0.0,99,0.00,,,0.00,Rainwise IP-100,2013-10-30 12:40:00,
2013-10-30 05:45:00,47.9,48.0,30.32,NNE,22,0.0,1.0,99,0.00,,,0.00,Rainwise IP-100,2013-10-30 12:45:00,
2013-10-30 05:50:00,48.0,48.0,30.32,NNE,22,0.0,0.0,99,0.00,,,0.00,Rainwise IP-100,2013-10-30 12:50:00,
2013-10-30 05:55:00,48.3,48.0,30.32,NNE,22,0.0,0.0,99,0.00,,,0.00,Rainwise IP-100,2013-10-30 12:55:00,
2013-10-30 06:00:00,48.5,49.0,30.33,NNE,22,0.0,0.0,99,0.00,,,0.00,Rainwise IP-100,2013-10-30 13:00:00,
2013-10-30 06:05:00,48.6,49.0,30.32,NNE,22,0.0,0.0,99,0.00,,,0.00,Rainwise IP-100,2013-10-30 13:05:00,
2013-10-30 06:10:00,48.6,49.0,30.33,NNE,22,1.2,1.2,99,0.00,,,0.00,Rainwise IP-100,2013-10-30 13:10:00,
2013-10-30 06:15:00,48.7,49.0,30.32,NNE,22,0.0,1.0,99,0.00,,,0.00,Rainwise IP-100,2013-10-30 13:15:00,
2013-10-30 06:20:00,48.5,49.0,30.32,NNE,22,1.4,1.4,99,0.00,,,0.00,Rainwise IP-100,2013-10-30 13:20:00,
2013-10-30 06:25:00,48.3,48.0,30.32,NNE,22,0.0,1.0,99,0.00,,,0.00,Rainwise IP-100,2013-10-30 13:25:00,
2013-10-30 06:30:00,48.1,48.0,30.32,NNE,22,0.0,0.0,99,0.00,,,0.00,Rainwise IP-100,2013-10-30 13:30:00,
2013-10-30 06:35:00,47.9,48.0,30.33,NNE,22,0.0,0.0,99,0.00,,,0.00,Rainwise IP-100,2013-10-30 13:35:00,
2013-10-30 06:40:00,48.0,48.0,30.33,NNE,22,0.0,0.0,99,0.00,,,0.00,Rainwise IP-100,2013-10-30 13:40:00,
2013-10-30 06:45:00,48.1,48.0,30.33,NNE,22,0.0,0.0,99,0.00,,,0.00,Rainwise IP-100,2013-10-30 13:45:00,
2013-10-30 06:50:00,47.7,47.0,30.33,NNE,22,1.2,1.2,99,0.00,,,0.00,Rainwise IP-100,2013-10-30 13:50:00,
2013-10-30 06:55:00,47.4,47.0,30.33,NNE,22,1.2,1.2,99,0.00,,,0.00,Rainwise IP-100,2013-10-30 13:55:00,
2013-10-30 07:00:00,47.6,47.0,30.33,NNE,22,0.0,1.0,99,0.00,,,0.00,Rainwise IP-100,2013-10-30 14:00:00,
2013-10-30 07:05:00,48.1,48.0,30.33,NNE,22,0.0,0.0,100,0.00,,,0.00,Rainwise IP-100,2013-10-30 14:05:00,
2013-10-30 07:10:00,48.2,48.0,30.33,NNE,22,0.0,0.0,100,0.00,,,0.00,Rainwise IP-100,2013-10-30 14:10:00,
2013-10-30 07:15:00,47.9,48.0,30.33,NNE,22,0.0,0.0,100,0.00,,,0.00,Rainwise IP-100,2013-10-30 14:15:00,
2013-10-30 07:20:00,47.8,47.0,30.33,NNE,22,1.4,1.4,100,0.00,,,0.00,Rainwise IP-100,2013-10-30 14:20:00,
2013-10-30 07:25:00,47.9,48.0,30.34,NNE,22,0.0,1.0,100,0.00,,,0.00,Rainwise IP-100,2013-10-30 14:25:00,
2013-10-30 07:30:00,47.8,47.0,30.34,NNE,22,0.0,0.0,100,0.00,,,0.00,Rainwise IP-100,2013-10-30 14:30:00,
2013-10-30 07:35:00,47.5,47.0,30.34,NNE,22,0.0,0.0,100,0.00,,,0.00,Rainwise IP-100,2013-10-30 14:35:00,
2013-10-30 07:40:00,47.4,47.0,30.34,NNE,22,0.0,0.0,100,0.00,,,0.00,Rainwise IP-100,2013-10-30 14:40:00,
2013-10-30 07:45:00,47.7,47.0,30.34,NNE,22,0.0,0.0,100,0.00,,,0.00,Rainwise IP-100,2013-10-30 14:45:00,
2013-10-30 07:50:00,47.8,47.0,30.34,NNE,22,0.0,0.0,100,0.00,,,0.00,Rainwise IP-100,2013-10-30 14:50:00,
2013-10-30 07:55:00,47.8,47.0,30.34,NNE,22,0.0,0.0,100,0.00,,,0.00,Rainwise IP-100,2013-10-30 14:55:00,
2013-10-30 08:00:00,47.9,48.0,30.34,NNE,22,0.0,0.0,100,0.00,,,0.00,Rainwise IP-100,2013-10-30 15:00:00,
2013-10-30 08:05:00,48.0,48.0,30.35,NNE,22,0.0,0.0,100,0.00,,,0.00,Rainwise IP-100,2013-10-30 15:05:00,
2013-10-30 08:10:00,48.1,48.0,30.35,NNE,22,0.0,0.0,100,0.00,,,0.00,Rainwise IP-100,2013-10-30 15:10:00,
2013-10-30 08:15:00,48.5,49.0,30.36,NNE,22,0.0,0.0,100,0.00,,,0.00,Rainwise IP-100,2013-10-30 15:15:00,
2013-10-30 08:20:00,48.8,49.0,30.36,NNE,22,0.0,0.0,100,0.00,,,0.00,Rainwise IP-100,2013-10-30 15:20:00,
2013-10-30 08:25:00,49.2,49.0,30.36,NNE,22,0.0,0.0,100,0.00,,,0.00,Rainwise IP-100,2013-10-30 15:25:00,
2013-10-30 08:30:00,49.5,50.0,30.36,NNE,22,0.0,0.0,100,0.00,,,0.00,Rainwise IP-100,2013-10-30 15:30:00,
2013-10-30 08:35:00,49.6,50.0,30.36,NNE,22,0.0,0.0,100,0.00,,,0.00,Rainwise IP-100,2013-10-30 15:35:00,
2013-10-30 08:40:00,49.7,50.0,30.37,NNE,22,0.0,0.0,100,0.00,,,0.00,Rainwise IP-100,2013-10-30 15:40:00,
2013-10-30 08:45:00,49.8,50.0,30.36,NNE,22,0.0,0.0,100,0.00,,,0.00,Rainwise IP-100,2013-10-30 15:45:00,
2013-10-30 08:50:00,50.0,50.0,30.37,NNE,22,0.0,0.0,100,0.00,,,0.00,Rainwise IP-100,2013-10-30 15:50:00,
2013-10-30 08:55:00,50.2,50.0,30.37,NNE,22,0.0,1.0,100,0.00,,,0.00,Rainwise IP-100,2013-10-30 15:55:00,
2013-10-30 09:00:00,50.5,50.0,30.37,NNE,22,1.6,2.0,100,0.00,,,0.00,Rainwise IP-100,2013-10-30 16:00:00,
2013-10-30 09:05:00,50.9,51.0,30.38,NNE,22,0.0,2.0,100,0.00,,,0.00,Rainwise IP-100,2013-10-30 16:05:00,
2013-10-30 09:10:00,51.3,51.0,30.38,NNE,22,0.0,1.0,100,0.00,,,0.00,Rainwise IP-100,2013-10-30 16:10:00,
2013-10-30 09:15:00,51.5,52.0,30.38,North,360,2.1,2.1,100,0.00,,,0.00,Rainwise IP-100,2013-10-30 16:15:00,
2013-10-30 09:20:00,51.4,51.0,30.38,North,360,0.0,2.0,100,0.00,,,0.00,Rainwise IP-100,2013-10-30 16:20:00,
2013-10-30 09:25:00,51.5,52.0,30.38,North,360,1.2,1.2,100,0.00,,,0.00,Rainwise IP-100,2013-10-30 16:25:00,
2013-10-30 09:30:00,51.5,52.0,30.39,NNE,22,0.0,3.0,99,0.00,,,0.00,Rainwise IP-100,2013-10-30 16:30:00,
2013-10-30 09:35:00,51.5,52.0,30.39,NNE,22,1.4,2.0,99,0.00,,,0.00,Rainwise IP-100,2013-10-30 16:35:00,
2013-10-30 09:40:00,51.6,51.0,30.39,ENE,67,2.8,4.0,98,0.00,,,0.00,Rainwise IP-100,2013-10-30 16:40:00,
2013-10-30 09:45:00,51.6,51.0,30.39,East,90,0.0,4.0,97,0.00,,,0.00,Rainwise IP-100,2013-10-30 16:45:00,
2013-10-30 09:50:00,52.0,51.0,30.39,ESE,112,3.7,3.7,97,0.00,,,0.00,Rainwise IP-100,2013-10-30 16:50:00,
2013-10-30 09:55:00,52.6,52.0,30.39,East,90,1.9,4.0,97,0.00,,,0.00,Rainwise IP-100,2013-10-30 16:55:00,
2013-10-30 10:00:00,53.3,51.0,30.40,East,90,1.6,5.0,95,0.00,,,0.00,Rainwise IP-100,2013-10-30 17:00:00,
2013-10-30 10:05:00,54.1,52.0,30.40,NE,45,3.0,5.0,93,0.00,,,0.00,Rainwise IP-100,2013-10-30 17:05:00,
2013-10-30 10:10:00,54.5,53.0,30.40,ESE,112,3.3,4.0,92,0.00,,,0.00,Rainwise IP-100,2013-10-30 17:10:00,
2013-10-30 10:15:00,54.8,52.0,30.39,NE,45,1.6,5.0,91,0.00,,,0.00,Rainwise IP-100,2013-10-30 17:15:00,
2013-10-30 10:20:00,55.3,53.0,30.40,SSE,157,3.0,3.0,90,0.00,,,0.00,Rainwise IP-100,2013-10-30 17:20:00,
2013-10-30 10:25:00,55.8,53.0,30.40,ESE,112,0.0,4.0,89,0.00,,,0.00,Rainwise IP-100,2013-10-30 17:25:00,
2013-10-30 10:30:00,56.5,53.0,30.39,ENE,67,0.0,5.0,87,0.00,,,0.00,Rainwise IP-100,2013-10-30 17:30:00,
2013-10-30 10:35:00,57.0,53.0,30.39,ENE,67,5.4,5.4,86,0.00,,,0.00,Rainwise IP-100,2013-10-30 17:35:00,
2013-10-30 10:40:00,57.4,53.0,30.39,ESE,112,0.0,6.0,85,0.00,,,0.00,Rainwise IP-100,2013-10-30 17:40:00,
2013-10-30 10:45:00,57.6,52.0,30.40,East,90,6.1,9.0,82,0.00,,,0.00,Rainwise IP-100,2013-10-30 17:45:00,
2013-10-30 10:50:00,57.6,52.0,30.39,East,90,1.9,6.0,81,0.00,,,0.00,Rainwise IP-100,2013-10-30 17:50:00,
2013-10-30 10:55:00,57.6,52.0,30.39,ESE,112,3.5,7.0,81,0.00,,,0.00,Rainwise IP-100,2013-10-30 17:55:00,
2013-10-30 11:00:00,57.9,53.0,30.40,SE,135,3.3,4.0,81,0.00,,,0.00,Rainwise IP-100,2013-10-30 18:00:00,
2013-10-30 11:05:00,58.9,53.0,30.40,SSE,157,0.0,4.0,80,0.00,,,0.00,Rainwise IP-100,2013-10-30 18:05:00,
2013-10-30 11:10:00,59.3,52.0,30.40,ESE,112,2.6,5.0,78,0.00,,,0.00,Rainwise IP-100,2013-10-30 18:10:00,
2013-10-30 11:15:00,59.2,52.0,30.40,ESE,112,5.6,7.0,78,0.00,,,0.00,Rainwise IP-100,2013-10-30 18:15:00,
2013-10-30 11:20:00,58.9,52.0,30.40,ESE,112,1.9,5.0,78,0.00,,,0.00,Rainwise IP-100,2013-10-30 18:20:00,
2013-10-30 11:25:00,58.8,52.0,30.39,East,90,0.0,5.0,78,0.00,,,0.00,Rainwise IP-100,2013-10-30 18:25:00,
2013-10-30 11:30:00,58.9,52.0,30.40,ESE,112,3.3,5.0,78,0.00,,,0.00,Rainwise IP-100,2013-10-30 18:30:00,
2013-10-30 11:35:00,59.3,52.0,30.40,ESE,112,2.8,5.0,77,0.00,,,0.00,Rainwise IP-100,2013-10-30 18:35:00,
2013-10-30 11:40:00,59.7,52.0,30.40,ESE,112,0.0,4.0,76,0.00,,,0.00,Rainwise IP-100,2013-10-30 18:40:00,
2013-10-30 11:45:00,60.2,52.0,30.39,SSE,157,1.6,4.0,75,0.00,,,0.00,Rainwise IP-100,2013-10-30 18:45:00,
2013-10-30 11:50:00,60.4,52.0,30.40,ESE,112,3.3,5.0,74,0.00,,,0.00,Rainwise IP-100,2013-10-30 18:50:00,
2013-10-30 11:55:00,60.7,52.0,30.39,ESE,112,2.8,5.0,73,0.00,,,0.00,Rainwise IP-100,2013-10-30 18:55:00,
2013-10-30 12:00:00,60.7,51.0,30.39,East,90,2.6,7.0,72,0.00,,,0.00,Rainwise IP-100,2013-10-30 19:00:00,
2013-10-30 12:05:00,60.9,51.0,30.40,ESE,112,1.2,5.0,71,0.00,,,0.00,Rainwise IP-100,2013-10-30 19:05:00,
2013-10-30 12:10:00,61.5,52.0,30.39,ESE,112,2.1,5.0,70,0.00,,,0.00,Rainwise IP-100,2013-10-30 19:10:00,
2013-10-30 12:15:00,61.9,52.0,30.39,SSE,157,1.4,5.0,69,0.00,,,0.00,Rainwise IP-100,2013-10-30 19:15:00,
2013-10-30 12:20:00,62.3,50.0,30.39,ENE,67,2.1,5.0,66,0.00,,,0.00,Rainwise IP-100,2013-10-30 19:20:00,
2013-10-30 12:25:00,62.6,50.0,30.39,ESE,112,3.5,7.0,65,0.00,,,0.00,Rainwise IP-100,2013-10-30 19:25:00,
2013-10-30 12:30:00,62.7,50.0,30.39,ESE,112,0.0,6.0,64,0.00,,,0.00,Rainwise IP-100,2013-10-30 19:30:00,
2013-10-30 12:35:00,63.1,50.0,30.39,NE,45,0.0,5.0,63,0.00,,,0.00,Rainwise IP-100,2013-10-30 19:35:00,
2013-10-30 12:40:00,63.5,50.0,30.38,SSE,157,0.0,6.0,62,0.00,,,0.00,Rainwise IP-100,2013-10-30 19:40:00,
2013-10-30 12:45:00,63.7,50.0,30.38,ESE,112,3.0,5.0,61,0.00,,,0.00,Rainwise IP-100,2013-10-30 19:45:00,
2013-10-30 12:50:00,63.6,50.0,30.38,SE,135,3.5,6.0,61,0.00,,,0.00,Rainwise IP-100,2013-10-30 19:50:00,
2013-10-30 12:55:00,63.6,50.0,30.38,SSE,157,4.9,5.0,61,0.00,,,0.00,Rainwise IP-100,2013-10-30 19:55:00,
2013-10-30 13:00:00,64.0,50.0,30.38,East,90,3.0,7.0,61,0.00,,,0.00,Rainwise IP-100,2013-10-30 20:00:00,
2013-10-30 13:05:00,64.5,50.0,30.38,ENE,67,3.5,4.0,60,0.00,,,0.00,Rainwise IP-100,2013-10-30 20:05:00,
2013-10-30 13:10:00,65.3,50.0,30.37,WSW,247,4.0,5.0,59,0.00,,,0.00,Rainwise IP-100,2013-10-30 20:10:00,
2013-10-30 13:15:00,65.8,50.0,30.37,ESE,112,3.0,7.0,59,0.00,,,0.00,Rainwise IP-100,2013-10-30 20:15:00,
2013-10-30 13:20:00,65.6,51.0,30.37,SE,135,2.3,6.0,61,0.00,,,0.00,Rainwise IP-100,2013-10-30 20:20:00,
2013-10-30 13:25:00,64.9,51.0,30.37,WNW,292,1.4,9.0,62,0.00,,,0.00,Rainwise IP-100,2013-10-30 20:25:00,
2013-10-30 13:30:00,64.2,50.0,30.37,WNW,292,2.6,6.0,62,0.00,,,0.00,Rainwise IP-100,2013-10-30 20:30:00,
2013-10-30 13:35:00,63.7,50.0,30.36,WNW,292,8.2,9.0,63,0.00,,,0.00,Rainwise IP-100,2013-10-30 20:35:00,
2013-10-30 13:40:00,63.2,51.0,30.36,WNW,292,4.9,11.0,65,0.00,,,0.00,Rainwise IP-100,2013-10-30 20:40:00,
2013-10-30 13:45:00,62.7,51.0,30.36,NW,315,7.0,11.0,67,0.00,,,0.00,Rainwise IP-100,2013-10-30 20:45:00,
2013-10-30 13:50:00,62.2,51.0,30.36,West,270,1.6,10.0,68,0.00,,,0.00,Rainwise IP-100,2013-10-30 20:50:00,
2013-10-30 13:55:00,62.0,52.0,30.36,WNW,292,2.8,9.0,69,0.00,,,0.00,Rainwise IP-100,2013-10-30 20:55:00,
2013-10-30 14:00:00,62.0,52.0,30.36,WNW,292,8.6,11.0,69,0.00,,,0.00,Rainwise IP-100,2013-10-30 21:00:00,
2013-10-30 14:05:00,61.9,52.0,30.36,WNW,292,5.6,9.0,69,0.00,,,0.00,Rainwise IP-100,2013-10-30 21:05:00,
2013-10-30 14:10:00,62.0,52.0,30.35,WNW,292,3.5,8.0,69,0.00,,,0.00,Rainwise IP-100,2013-10-30 21:10:00,
2013-10-30 14:15:00,62.2,51.0,30.36,WSW,247,4.7,8.0,68,0.00,,,0.00,Rainwise IP-100,2013-10-30 21:15:00,
2013-10-30 14:20:00,62.4,52.0,30.36,WNW,292,4.7,7.0,68,0.00,,,0.00,Rainwise IP-100,2013-10-30 21:20:00,
2013-10-30 14:25:00,62.4,52.0,30.35,NW,315,4.0,7.0,68,0.00,,,0.00,Rainwise IP-100,2013-10-30 21:25:00,
2013-10-30 14:30:00,62.7,52.0,30.35,WNW,292,3.3,6.0,68,0.00,,,0.00,Rainwise IP-100,2013-10-30 21:30:00,
2013-10-30 14:35:00,63.2,52.0,30.35,WNW,292,5.8,5.8,67,0.00,,,0.00,Rainwise IP-100,2013-10-30 21:35:00,
2013-10-30 14:40:00,63.2,51.0,30.35,WSW,247,4.7,8.0,66,0.00,,,0.00,Rainwise IP-100,2013-10-30 21:40:00,
2013-10-30 14:45:00,63.2,51.0,30.35,SSW,202,5.6,9.0,66,0.00,,,0.00,Rainwise IP-100,2013-10-30 21:45:00,
2013-10-30 14:50:00,62.8,51.0,30.35,SSW,202,2.6,10.0,66,0.00,,,0.00,Rainwise IP-100,2013-10-30 21:50:00,
2013-10-30 14:55:00,62.0,50.0,30.35,ESE,112,1.6,8.0,66,0.00,,,0.00,Rainwise IP-100,2013-10-30 21:55:00,
2013-10-30 15:00:00,61.9,50.0,30.34,West,270,3.7,8.0,65,0.00,,,0.00,Rainwise IP-100,2013-10-30 22:00:00,
2013-10-30 15:05:00,62.1,50.0,30.34,SW,225,1.2,8.0,66,0.00,,,0.00,Rainwise IP-100,2013-10-30 22:05:00,
2013-10-30 15:10:00,61.7,50.0,30.34,West,270,6.5,12.0,67,0.00,,,0.00,Rainwise IP-100,2013-10-30 22:10:00,
2013-10-30 15:15:00,61.3,50.0,30.34,WNW,292,9.6,11.0,67,0.00,,,0.00,Rainwise IP-100,2013-10-30 22:15:00,
2013-10-30 15:20:00,61.0,50.0,30.34,NW,315,1.9,10.0,66,0.00,,,0.00,Rainwise IP-100,2013-10-30 22:20:00,
2013-10-30 15:25:00,61.1,50.0,30.34,SW,225,2.3,11.0,66,0.00,,,0.00,Rainwise IP-100,2013-10-30 22:25:00,
2013-10-30 15:30:00,61.4,49.0,30.34,West,270,2.8,7.0,64,0.00,,,0.00,Rainwise IP-100,2013-10-30 22:30:00,
2013-10-30 15:35:00,61.7,49.0,30.34,WNW,292,1.6,8.0,63,0.00,,,0.00,Rainwise IP-100,2013-10-30 22:35:00,
2013-10-30 15:40:00,61.8,49.0,30.34,WNW,292,2.1,8.0,63,0.00,,,0.00,Rainwise IP-100,2013-10-30 22:40:00,
2013-10-30 15:45:00,62.0,49.0,30.34,WNW,292,1.6,7.0,63,0.00,,,0.00,Rainwise IP-100,2013-10-30 22:45:00,
2013-10-30 15:50:00,62.0,49.0,30.34,WNW,292,1.2,7.0,63,0.00,,,0.00,Rainwise IP-100,2013-10-30 22:50:00,
2013-10-30 15:55:00,62.1,49.0,30.34,WNW,292,2.6,11.0,63,0.00,,,0.00,Rainwise IP-100,2013-10-30 22:55:00,
2013-10-30 16:00:00,62.1,49.0,30.34,WSW,247,4.4,7.0,63,0.00,,,0.00,Rainwise IP-100,2013-10-30 23:00:00,
2013-10-30 16:05:00,61.8,48.0,30.34,WSW,247,4.4,9.0,62,0.00,,,0.00,Rainwise IP-100,2013-10-30 23:05:00,
2013-10-30 16:06:00,61.7,48.0,30.34,SSW,202,3.3,9.0,62,0.00,,,0.00,Rainwise IP-100,2013-10-30 23:06:00,
2013-10-30 16:11:00,61.7,48.0,30.34,ESE,112,0.0,8.0,62,0.00,,,0.00,Rainwise IP-100,2013-10-30 23:11:00,
2013-10-30 16:16:00,62.1,48.0,30.33,ENE,67,2.6,6.0,61,0.00,,,0.00,Rainwise IP-100,2013-10-30 23:16:00,
2013-10-30 16:21:00,62.0,48.0,30.33,WNW,292,6.5,10.0,60,0.00,,,0.00,Rainwise IP-100,2013-10-30 23:21:00,
2013-10-30 16:26:00,61.6,47.0,30.34,WNW,292,2.3,8.0,60,0.00,,,0.00,Rainwise IP-100,2013-10-30 23:26:00,
2013-10-30 16:31:00,61.4,47.0,30.34,WNW,292,3.7,11.0,60,0.00,,,0.00,Rainwise IP-100,2013-10-30 23:31:00,
2013-10-30 16:36:00,60.9,47.0,30.34,WNW,292,4.7,10.0,60,0.00,,,0.00,Rainwise IP-100,2013-10-30 23:36:00,
2013-10-30 16:41:00,60.3,47.0,30.34,WSW,247,3.5,9.0,61,0.00,,,0.00,Rainwise IP-100,2013-10-30 23:41:00,
2013-10-30 16:46:00,60.1,47.0,30.34,SSE,157,1.4,9.0,62,0.00,,,0.00,Rainwise IP-100,2013-10-30 23:46:00,
2013-10-30 16:51:00,60.2,47.0,30.34,WNW,292,8.4,8.4,62,0.00,,,0.00,Rainwise IP-100,2013-10-30 23:51:00,
2013-10-30 16:56:00,59.8,47.0,30.34,West,270,6.1,12.0,63,0.00,,,0.00,Rainwise IP-100,2013-10-30 23:56:00,
2013-10-30 17:01:00,59.4,47.0,30.34,WSW,247,2.6,10.0,64,0.00,,,0.00,Rainwise IP-100,2013-10-31 00:01:00,
2013-10-30 17:06:00,58.9,48.0,30.33,West,270,6.5,14.0,67,0.00,,,0.00,Rainwise IP-100,2013-10-31 00:06:00,
2013-10-30 17:11:00,58.4,48.0,30.34,WSW,247,1.9,9.0,69,0.00,,,0.00,Rainwise IP-100,2013-10-31 00:11:00,
2013-10-30 17:16:00,58.5,49.0,30.33,SSW,202,0.0,8.0,69,0.00,,,0.00,Rainwise IP-100,2013-10-31 00:16:00,
2013-10-30 17:21:00,58.8,48.0,30.33,WSW,247,2.3,5.0,68,0.00,,,0.00,Rainwise IP-100,2013-10-31 00:21:00,
2013-10-30 17:26:00,58.8,48.0,30.34,WSW,247,4.7,6.0,68,0.00,,,0.00,Rainwise IP-100,2013-10-31 00:26:00,
2013-10-30 17:31:00,58.4,48.0,30.33,SW,225,1.9,6.0,69,0.00,,,0.00,Rainwise IP-100,2013-10-31 00:31:00,
2013-10-30 17:36:00,58.0,48.0,30.34,WNW,292,4.9,5.0,70,0.00,,,0.00,Rainwise IP-100,2013-10-31 00:36:00,
2013-10-30 17:41:00,57.6,48.0,30.33,WNW,292,3.7,7.0,71,0.00,,,0.00,Rainwise IP-100,2013-10-31 00:41:00,
2013-10-30 17:46:00,57.1,48.0,30.34,SW,225,0.0,6.0,73,0.00,,,0.00,Rainwise IP-100,2013-10-31 00:46:00,
2013-10-30 17:51:00,56.6,49.0,30.34,WSW,247,4.4,8.0,75,0.00,,,0.00,Rainwise IP-100,2013-10-31 00:51:00,
2013-10-30 17:56:00,55.9,48.0,30.34,WNW,292,1.9,9.0,76,0.00,,,0.00,Rainwise IP-100,2013-10-31 00:56:00,
2013-10-30 18:01:00,55.4,47.0,30.34,WNW,292,7.0,11.0,75,0.00,,,0.00,Rainwise IP-100,2013-10-31 01:01:00,
2013-10-30 18:06:00,55.3,47.0,30.34,West,270,3.0,9.0,72,0.00,,,0.00,Rainwise IP-100,2013-10-31 01:06:00,
2013-10-30 18:11:00,55.4,46.0,30.34,SSW,202,1.2,7.0,70,0.00,,,0.00,Rainwise IP-100,2013-10-31 01:11:00,
2013-10-30 18:16:00,55.4,46.0,30.34,WNW,292,4.7,8.0,70,0.00,,,0.00,Rainwise IP-100,2013-10-31 01:16:00,
2013-10-30 18:21:00,55.1,47.0,30.34,WNW,292,4.0,9.0,73,0.00,,,0.00,Rainwise IP-100,2013-10-31 01:21:00,
2013-10-30 18:26:00,54.7,47.0,30.34,West,270,6.5,9.0,76,0.00,,,0.00,Rainwise IP-100,2013-10-31 01:26:00,
2013-10-30 18:31:00,54.3,47.0,30.34,West,270,4.0,8.0,78,0.00,,,0.00,Rainwise IP-100,2013-10-31 01:31:00,
2013-10-30 18:36:00,53.9,48.0,30.34,WSW,247,2.6,7.0,80,0.00,,,0.00,Rainwise IP-100,2013-10-31 01:36:00,
2013-10-30 18:41:00,53.7,47.0,30.34,NW,315,2.3,11.0,80,0.00,,,0.00,Rainwise IP-100,2013-10-31 01:41:00,
2013-10-30 18:46:00,53.7,47.0,30.34,West,270,5.1,10.0,80,0.00,,,0.00,Rainwise IP-100,2013-10-31 01:46:00,
2013-10-30 18:51:00,53.7,47.0,30.34,West,270,6.8,10.0,78,0.00,,,0.00,Rainwise IP-100,2013-10-31 01:51:00,
2013-10-30 18:56:00,53.7,47.0,30.35,WNW,292,4.9,8.0,77,0.00,,,0.00,Rainwise IP-100,2013-10-31 01:56:00,
2013-10-30 19:01:00,53.9,46.0,30.35,WNW,292,3.0,10.0,74,0.00,,,0.00,Rainwise IP-100,2013-10-31 02:01:00,
2013-10-30 19:06:00,54.0,46.0,30.35,SSE,157,0.0,6.0,73,0.00,,,0.00,Rainwise IP-100,2013-10-31 02:06:00,
2013-10-30 19:11:00,54.0,46.0,30.35,WNW,292,0.0,8.0,74,0.00,,,0.00,Rainwise IP-100,2013-10-31 02:11:00,
2013-10-30 19:16:00,53.9,47.0,30.35,WNW,292,2.3,7.0,76,0.00,,,0.00,Rainwise IP-100,2013-10-31 02:16:00,
2013-10-30 19:21:00,53.8,46.0,30.35,NW,315,3.3,6.0,75,0.00,,,0.00,Rainwise IP-100,2013-10-31 02:21:00,
2013-10-30 19:26:00,53.9,46.0,30.35,NNW,337,0.0,3.0,74,0.00,,,0.00,Rainwise IP-100,2013-10-31 02:26:00,
2013-10-30 19:31:00,53.7,46.0,30.35,SSE,157,0.0,2.0,76,0.00,,,0.00,Rainwise IP-100,2013-10-31 02:31:00,
2013-10-30 19:36:00,53.5,47.0,30.35,ESE,112,0.0,2.0,78,0.00,,,0.00,Rainwise IP-100,2013-10-31 02:36:00,
2013-10-30 19:41:00,53.4,47.0,30.36,ESE,112,0.0,0.0,79,0.00,,,0.00,Rainwise IP-100,2013-10-31 02:41:00,
2013-10-30 19:46:00,53.2,47.0,30.35,ESE,112,0.0,2.0,81,0.00,,,0.00,Rainwise IP-100,2013-10-31 02:46:00,
2013-10-30 19:51:00,53.0,47.0,30.36,ESE,112,0.0,1.0,83,0.00,,,0.00,Rainwise IP-100,2013-10-31 02:51:00,
2013-10-30 19:56:00,52.8,47.0,30.36,ESE,112,0.0,1.0,83,0.00,,,0.00,Rainwise IP-100,2013-10-31 02:56:00,
2013-10-30 20:01:00,52.6,48.0,30.36,ESE,112,1.2,1.2,84,0.00,,,0.00,Rainwise IP-100,2013-10-31 03:01:00,
2013-10-30 20:06:00,52.4,47.0,30.36,ESE,112,0.0,1.0,84,0.00,,,0.00,Rainwise IP-100,2013-10-31 03:06:00,
2013-10-30 20:11:00,52.2,47.0,30.36,ESE,112,1.2,2.0,85,0.00,,,0.00,Rainwise IP-100,2013-10-31 03:11:00,
2013-10-30 20:16:00,52.0,48.0,30.36,ESE,112,0.0,1.0,86,0.00,,,0.00,Rainwise IP-100,2013-10-31 03:16:00,
2013-10-30 20:21:00,51.9,48.0,30.36,ESE,112,0.0,2.0,86,0.00,,,0.00,Rainwise IP-100,2013-10-31 03:21:00,
2013-10-30 20:26:00,51.8,48.0,30.36,ESE,112,0.0,2.0,87,0.00,,,0.00,Rainwise IP-100,2013-10-31 03:26:00,
2013-10-30 20:31:00,51.7,48.0,30.36,ESE,112,0.0,1.0,87,0.00,,,0.00,Rainwise IP-100,2013-10-31 03:31:00,
2013-10-30 20:36:00,51.6,48.0,30.36,SSW,202,0.0,2.0,87,0.00,,,0.00,Rainwise IP-100,2013-10-31 03:36:00,
2013-10-30 20:41:00,51.5,48.0,30.36,South,180,2.6,4.0,87,0.00,,,0.00,Rainwise IP-100,2013-10-31 03:41:00,
2013-10-30 20:46:00,51.5,48.0,30.36,SSE,157,1.6,6.0,88,0.00,,,0.00,Rainwise IP-100,2013-10-31 03:46:00,
2013-10-30 20:51:00,51.4,48.0,30.36,SSE,157,0.0,4.0,89,0.00,,,0.00,Rainwise IP-100,2013-10-31 03:51:00,
2013-10-30 20:56:00,51.2,48.0,30.36,South,180,0.0,3.0,89,0.00,,,0.00,Rainwise IP-100,2013-10-31 03:56:00,
2013-10-30 21:01:00,51.0,48.0,30.36,SSW,202,2.6,4.0,90,0.00,,,0.00,Rainwise IP-100,2013-10-31 04:01:00,
2013-10-30 21:06:00,51.1,48.0,30.36,WSW,247,4.4,6.0,90,0.00,,,0.00,Rainwise IP-100,2013-10-31 04:06:00,
2013-10-30 21:11:00,51.2,49.0,30.36,SW,225,1.9,6.0,91,0.00,,,0.00,Rainwise IP-100,2013-10-31 04:11:00,
2013-10-30 21:16:00,51.2,49.0,30.36,South,180,0.0,4.0,91,0.00,,,0.00,Rainwise IP-100,2013-10-31 04:16:00,
2013-10-30 21:21:00,51.2,49.0,30.36,WSW,247,1.9,3.0,91,0.00,,,0.00,Rainwise IP-100,2013-10-31 04:21:00,
2013-10-30 21:26:00,51.2,49.0,30.36,West,270,1.6,5.0,91,0.00,,,0.00,Rainwise IP-100,2013-10-31 04:26:00,
2013-10-30 21:31:00,51.3,49.0,30.36,WNW,292,4.2,4.2,91,0.00,,,0.00,Rainwise IP-100,2013-10-31 04:31:00,
2013-10-30 21:36:00,51.4,49.0,30.36,SSW,202,2.3,5.0,91,0.00,,,0.00,Rainwise IP-100,2013-10-31 04:36:00,
2013-10-30 21:41:00,51.4,49.0,30.36,WSW,247,2.8,4.0,91,0.00,,,0.00,Rainwise IP-100,2013-10-31 04:41:00,
2013-10-30 21:46:00,51.4,48.0,30.36,NW,315,3.0,4.0,90,0.00,,,0.00,Rainwise IP-100,2013-10-31 04:46:00,
2013-10-30 21:51:00,51.3,48.0,30.36,West,270,1.2,3.0,90,0.00,,,0.00,Rainwise IP-100,2013-10-31 04:51:00,
2013-10-30 21:56:00,51.3,49.0,30.36,WSW,247,1.9,3.0,91,0.00,,,0.00,Rainwise IP-100,2013-10-31 04:56:00,
2013-10-30 22:01:00,51.2,48.0,30.36,WNW,292,3.7,4.0,90,0.00,,,0.00,Rainwise IP-100,2013-10-31 05:01:00,
2013-10-30 22:06:00,51.2,48.0,30.36,WNW,292,3.3,4.0,90,0.00,,,0.00,Rainwise IP-100,2013-10-31 05:06:00,
2013-10-30 22:11:00,51.2,48.0,30.36,WNW,292,3.0,5.0,90,0.00,,,0.00,Rainwise IP-100,2013-10-31 05:11:00,
2013-10-30 22:16:00,51.2,48.0,30.36,West,270,3.3,5.0,90,0.00,,,0.00,Rainwise IP-100,2013-10-31 05:16:00,
2013-10-30 22:21:00,51.2,48.0,30.36,West,270,3.7,5.0,90,0.00,,,0.00,Rainwise IP-100,2013-10-31 05:21:00,
2013-10-30 22:26:00,51.1,48.0,30.36,WNW,292,0.0,5.0,90,0.00,,,0.00,Rainwise IP-100,2013-10-31 05:26:00,
2013-10-30 22:31:00,51.0,48.0,30.36,SSW,202,1.2,2.0,90,0.00,,,0.00,Rainwise IP-100,2013-10-31 05:31:00,
2013-10-30 22:36:00,50.9,48.0,30.36,NW,315,1.4,3.0,90,0.00,,,0.00,Rainwise IP-100,2013-10-31 05:36:00,
2013-10-30 22:41:00,50.8,47.0,30.36,WNW,292,2.1,4.0,90,0.00,,,0.00,Rainwise IP-100,2013-10-31 05:41:00,
2013-10-30 22:46:00,50.7,47.0,30.37,WNW,292,1.9,4.0,90,0.00,,,0.00,Rainwise IP-100,2013-10-31 05:46:00,
2013-10-30 22:51:00,50.8,47.0,30.37,WNW,292,1.6,3.0,90,0.00,,,0.00,Rainwise IP-100,2013-10-31 05:51:00,
2013-10-30 22:56:00,50.8,47.0,30.36,West,270,1.6,3.0,90,0.00,,,0.00,Rainwise IP-100,2013-10-31 05:56:00,
2013-10-30 23:01:00,50.8,47.0,30.36,WNW,292,2.3,3.0,90,0.00,,,0.00,Rainwise IP-100,2013-10-31 06:01:00,
2013-10-30 23:06:00,50.9,48.0,30.36,WNW,292,4.0,4.0,90,0.00,,,0.00,Rainwise IP-100,2013-10-31 06:06:00,
2013-10-30 23:11:00,50.9,48.0,30.36,West,270,2.6,4.0,90,0.00,,,0.00,Rainwise IP-100,2013-10-31 06:11:00,
2013-10-30 23:16:00,50.9,48.0,30.36,West,270,2.8,3.0,90,0.00,,,0.00,Rainwise IP-100,2013-10-31 06:16:00,
2013-10-30 23:21:00,50.9,48.0,30.36,WNW,292,2.3,4.0,90,0.00,,,0.00,Rainwise IP-100,2013-10-31 06:21:00,
2013-10-30 23:26:00,50.9,48.0,30.36,WNW,292,3.0,3.0,90,0.00,,,0.00,Rainwise IP-100,2013-10-31 06:26:00,
2013-10-30 23:31:00,50.8,48.0,30.36,WNW,292,2.8,4.0,91,0.00,,,0.00,Rainwise IP-100,2013-10-31 06:31:00,
2013-10-30 23:36:00,50.8,48.0,30.36,WNW,292,4.7,5.0,91,0.00,,,0.00,Rainwise IP-100,2013-10-31 06:36:00,
2013-10-30 23:41:00,50.9,49.0,30.36,West,270,1.9,5.0,91,0.00,,,0.00,Rainwise IP-100,2013-10-31 06:41:00,
2013-10-30 23:46:00,50.9,49.0,30.36,WSW,247,0.0,3.0,91,0.00,,,0.00,Rainwise IP-100,2013-10-31 06:46:00,
2013-10-30 23:51:00,50.8,48.0,30.36,WNW,292,2.3,3.0,91,0.00,,,0.00,Rainwise IP-100,2013-10-31 06:51:00,
2013-10-30 23:56:00,50.8,48.0,30.36,West,270,2.6,4.0,91,0.00,,,0.00,Rainwise IP-100,2013-10-31 06:56:00,